Home > Weather > Fort Frances > Past weeks

Flag for Canada Weather for the Past 2 Weeks in Fort Frances, Ontario, Canada

Now
0 °F

Overcast.


Feels Like: -17 °F
Forecast: -8 / 5 °F
Wind: 10 mph from North

Location: Dryden Airport

Current Time: Feb 9, 2016 at 4:04:05 AM

Latest Report: Feb 9, 2016 at 2:00 AM


Visibility: 9 mi

Pressure: 30.17 "Hg

Humidity: 84%

Dew point: -4 °F

Location of Fort FrancesLocation

Historic Weather in Fort Frances — Graph

°F

Fort Frances Temperature Yesterday

Maximum temperature yesterday: 9 °F (at 12:00 AM)
Minimum temperature yesterday: 0 °F (at 11:00 PM)
Average temperature yesterday: 4 °F

High & Low Weather Summary for the Past Weeks

 TemperatureHumidityPressure
High34 °F (Jan 30, 12:00 PM)100% (Jan 25, 3:54 AM)30.32 "Hg (Jan 25, 3:54 AM)
Low-2 °F (Jan 29, 1:00 AM)57% (Feb 3, 3:00 PM)29.19 "Hg (Jan 30, 3:00 AM)
Average14 °F86%29.87 "Hg
* Reported Jan 25 2:00 AM — Feb 9 2:00 AM, Fort Frances, Weather by CustomWeather, © 2016

Note: Actual official high and low records may vary slightly from our data, if they occured in-between our weather recording intervals... More about our weather records

Advertising

Fort Frances Weather History for the Previous 24 Hours

 ConditionsComfort  
Time TempWeatherWind HumidityBarometerVisibility
2:00 AM
Tue, Feb 9
0 °FOvercast.10 mph84%30.17 "Hg9 mi
1:00 AM0 °FLight snow. Mostly cloudy.9 mph84%30.16 "Hg9 mi
12:52 AM0 °FLight snow. Mostly cloudy.9 mph84%30.16 "Hg9 mi
12:00 AM0 °FLight snow. Overcast.6 mph84%30.17 "Hg9 mi
11:00 PM
Mon, Feb 8
0 °FLight snow. Overcast.13 mph84%30.16 "Hg9 mi
10:00 PM1 °FLight snow. Overcast.9 mph78%30.16 "Hg9 mi
9:00 PM1 °FLight snow. Overcast.8 mph78%30.16 "Hg9 mi
8:00 PM1 °FLight snow. Overcast.13 mph78%30.16 "Hg9 mi
7:00 PM1 °FMostly cloudy.9 mph85%30.15 "Hg9 mi
6:00 PM3 °FLight snow. Overcast.10 mph78%30.13 "Hg9 mi
5:00 PM3 °FLight snow. Overcast.10 mph78%30.12 "Hg8 mi
4:00 PM5 °FLight snow. Mostly cloudy.14 mph78%30.10 "Hg9 mi
3:03 PM5 °FLight snow. Cloudy.10 mph78%30.08 "Hg9 mi
2:50 PM5 °FLight snow. Mostly cloudy.13 mph78%30.07 "Hg6 mi
2:00 PM5 °FLight snow. Mostly cloudy.8 mph78%30.06 "Hg4 mi
1:00 PM5 °FLight snow. Mostly cloudy.10 mph78%30.05 "Hg4 mi
12:48 PM5 °FLight snow. Mostly cloudy.10 mph78%30.04 "Hg5 mi
12:00 PM3 °FLight snow. Overcast.8 mph78%30.05 "Hg5 mi
11:56 AM3 °FLight snow. Overcast.12 mph78%30.05 "Hg5 mi
11:00 AM3 °FLight snow. Overcast.12 mph72%30.06 "Hg9 mi
10:00 AM1 °FLight snow. Overcast.9 mph78%30.06 "Hg9 mi
9:00 AM3 °FLight snow. Overcast.10 mph78%30.03 "Hg5 mi
8:58 AM3 °FLight snow. Overcast.10 mph78%30.03 "Hg5 mi
8:00 AM3 °FLight snow. Mostly cloudy.6 mph85%30.02 "Hg1 mi
7:48 AM3 °FLight snow. Mostly cloudy.9 mph85%30.01 "Hg1 mi
7:00 AM3 °FLight snow. Overcast.7 mph85%30.00 "Hg4 mi
6:55 AM3 °FLight snow. Overcast.7 mph85%30.00 "Hg5 mi
6:00 AM5 °FLight snow. Overcast.8 mph78%29.99 "Hg9 mi
5:00 AM3 °FLight snow. Mostly cloudy.5 mph85%29.98 "Hg8 mi
4:00 AM3 °FMostly cloudy.6 mph85%29.96 "Hg9 mi
Weather by CustomWeather, © 2016

See weather overviewHow to use our weather pages